Regional Weather Roundup
Issued by NWS

Home | Current Version | Previous Version | Text Only | Print | Product List | Glossary On
Versions: 1 2 3 4 5 6 7 8 9 10 11 12 13 14 15 16 17 18 19 20 21 22 23 24 25 26 27 28 29 30 31 32 33 34 35 36 37 38 39 40 41 42 43 44 45 46 47 48 49 50
000
ASUS43 KLOT 210600
RWRIL

ILLINOIS REGIONAL WEATHER ROUNDUP
NATIONAL WEATHER SERVICE CHICAGO/ROMEOVILLE IL
1200 AM CST SUN DEC 21 2014

NOTE: "FAIR" INDICATES FEW OR NO CLOUDS BELOW 12,000 FEET WITH NO
SIGNIFICANT WEATHER AND/OR OBSTRUCTIONS TO VISIBILITY.

* THESE STATIONS ARE NOT UNDER NWS QUALITY CONTROL. THEY ALSO MAY NOT
  REPORT WEATHER SUCH AS PRECIPITATION OR FOG.

ILZ001-002-007-009-015-016-024-210700-
NORTHWEST ILLINOIS

CITY           SKY/WX    TMP DP  RH WIND       PRES   REMARKS
MOLINE         CLOUDY    34  31  88 S10       30.18F FOG     WCI  26
6HR MIN TEMP:  33; 6HR MAX TEMP:  34;

STERLING*      CLOUDY    32  27  80 S3        30.20F
$$

ILZ003-004-008-010-011-017-018-210700-
NORTH CENTRAL ILLINOIS

CITY           SKY/WX    TMP DP  RH WIND       PRES   REMARKS
ROCKFORD       LGT SNOW  32  28  85 S8        30.23F FOG     WCI  25
6HR MIN TEMP:  31; 6HR MAX TEMP:  32; 6HR PCP: TRACE;

$$

ILZ005-006-012>014-019>023-210700-
NORTHEAST ILLINOIS

CITY           SKY/WX    TMP DP  RH WIND       PRES   REMARKS
CHICAGO-OHARE  CLOUDY    31  26  82 S6        30.24S WCI  25
6HR MIN TEMP:  31; 6HR MAX TEMP:  32;

CHICAGO-MIDWAY CLOUDY    34  27  75 S6        30.25S WCI  29
6HR MIN TEMP:  34; 6HR MAX TEMP:  34; 6HR PCP: TRACE;

AURORA         CLOUDY    32  27  81 SE7       30.23F WCI  26
6HR MIN TEMP:  32; 6HR MAX TEMP:  33;

WAUKEGAN       CLOUDY    32  26  78 S6        30.23S WCI  26
6HR MIN TEMP:  30; 6HR MAX TEMP:  32;

DUPAGE AIRPORT CLOUDY    32  27  81 S8        30.23S WCI  25
6HR MIN TEMP:  31; 6HR MAX TEMP:  32;

WHEELING       CLOUDY    32  26  78 S6        30.25F WCI  26
6HR MIN TEMP:  32; 6HR MAX TEMP:  33;

NORTHERLY ISL    N/A     33  26  76 S6          N/A  WCI  28
$$

LMZ740>746-210700-
SOUTHERN LAKE MICHIGAN

STATION/POSITION SKY/WX   TEMP    WIND        PRES    VSBY  WAVE
                          AIR SEA DIR/SP/G                  HT/PER
                          (F)     (DEG/KT/KT) (MB)    (MI)  (FT/S)
WAUKEGAN HARBOR            33     200/  8/ 11   N/A
HARRISON CRIB              33     190/ 10/ 12   N/A
BURNHAM HARBOR             33     180/  6/  8   N/A
CALUMET HARBOR             32     180/  5/  7 1023.4S
$$

ILZ025>027-034>036-040-047-049-050-058-095>099-210700-
WEST-CENTRAL ILLINOIS

CITY           SKY/WX    TMP DP  RH WIND       PRES   REMARKS
QUINCY         CLOUDY    38  33  82 S8        30.19F WCI  32
$$

ILZ028>032-037-038-041>044-048-051>054-059>061-210700-
CENTRAL ILLINOIS

CITY           SKY/WX    TMP DP  RH WIND       PRES   REMARKS
DECATUR        CLOUDY    34  28  79 S9        30.26F WCI  27
PEORIA         CLOUDY    36  29  75 S9        30.23R WCI  29
6HR MIN TEMP:  35; 6HR MAX TEMP:  36;

SPRINGFIELD    CLOUDY    37  31  78 S12       30.23F WCI  29
6HR MIN TEMP:  37; 6HR MAX TEMP:  38;

TAYLORVILLE    NOT AVBL
$$

ILZ033-039-045-046-055>057-062-063-210700-
EAST-CENTRAL ILLINOIS

CITY           SKY/WX    TMP DP  RH WIND       PRES   REMARKS
CHAMPAIGN      CLOUDY    31  27  85 S7        30.27R WCI  24
MATTOON        CLOUDY    31  26  82 S7        30.26S WCI  24
$$

ILZ079-100>102-210700-
SOUTHWEST ILLINOIS

CITY           SKY/WX    TMP DP  RH WIND       PRES   REMARKS
CAHOKIA*       CLOUDY    41  34  76 S6        30.25F
$$

ILZ064>066-069>071-074>076-080>082-084>086-088>090-092>094-210700-
SOUTH-CENTRAL ILLINOIS

CITY           SKY/WX    TMP DP  RH WIND       PRES   REMARKS
CARBONDALE     CLEAR     32  27  81 CALM      30.28S
6HR MIN TEMP:  31; 6HR MAX TEMP:  38;

MT. VERNON     CLOUDY    36  27  69 SE3       30.28F
$$

ILZ067-068-072-073-078-083-087-091-210700-
SOUTHEAST ILLINOIS

CITY           SKY/WX    TMP DP  RH WIND       PRES   REMARKS
LAWRENCEVILLE  CLEAR     25  23  92 E3        30.30S FOG
$$

ABBREVIATIONS USED IN REMARKS
   TC - TEMPERATURE IN CELSIUS
  WCI - WIND CHILL INDEX
   HX - HEAT INDEX
  VSB - VISIBILITY
$$



USA.gov is the U.S. government's official web portal to all federal, state and local government web resources and services.